STARLINK-35030

Last updated on Thu Oct 02 2025 00:02:05 GMT+0000 (Coordinated Universal Time)

1 65448U 25194Q 25274.52903764 .00120256 00000+0 30347-2 0 9998 2 65448 97.6033 126.8070 0002555 112.4804 247.6711 15.39370179 5657
UTC large
Height (km)
Speed (km/s)
/
Latitude / Longitude
Inclination (degrees)
Orbital Period (minutes)
Azimuth
Elevation
Range (km)
Doppler Factor

Next 0 passes for location: London (51.5072 / 0.1276)

Sorry there are no passes over London.
STARLINK-35030